EW4676 Weather Reports


Display with metric or nautical units.
time (UTC)temp
F
wind
direction
speed
MPH
gust
MPH
rain 1hr
in
rain 24hr
in
rain mn
in
humidity
%
barometer
mb
20260508014511 66 159 2.0 5.0 0.00 0.00 0.00 59 1014.5
20260508013501 66 151 2.0 5.0 0.00 0.00 0.00 59 1014.6
20260508012945 66 137 2.0 6.0 0.00 0.00 0.00 58 1014.4
20260508012439 66 143 3.0 6.0 0.00 0.00 0.00 58 1014.4
20260508011939 66 161 3.0 7.0 0.00 0.00 0.00 58 1014.4
20260508011435 66 159 2.0 7.0 0.00 0.00 0.00 58 1014.5
20260508010933 66 146 2.0 5.0 0.00 0.00 0.00 58 1014.4
20260508010434 66 157 2.0 5.0 0.00 0.00 0.00 58 1014.4
20260508005927 67 158 2.0 5.0 0.00 0.00 0.00 58 1014.5
20260508005414 67 164 1.0 4.0 0.00 0.00 0.00 59 1014.6
20260508004905 67 168 1.0 4.0 0.00 0.00 0.00 59 1014.6
20260508004354 67 178 1.0 3.0 0.00 0.00 0.00 58 1014.5
20260508003844 67 179 1.0 3.0 0.00 0.00 0.00 58 1014.4
20260508003333 67 179 1.0 4.0 0.00 0.00 0.00 58 1014.4
20260508003325 67 186 2.0 4.0 0.00 0.00 0.00 58 1014.4
20260508002307 67 182 2.0 6.0 0.00 0.00 0.00 58 1014.6
20260508001806 67 156 2.0 6.0 0.00 0.00 0.00 58 1014.6
20260508001248 67 217 2.0 4.0 0.00 0.00 0.00 58 1014.6
20260508000740 68 213 1.0 4.0 0.00 0.00 0.00 58 1014.7
20260508000235 68 207 1.0 4.0 0.00 0.00 0.00 57 1014.9
20260507235730 68 205 1.0 7.0 0.00 0.00 0.00 57 1014.6
20260507235219 68 220 2.0 7.0 0.00 0.00 0.00 58 1014.7
20260507234712 68 222 2.0 6.0 0.00 0.00 0.00 59 1014.8
20260507234206 68 220 2.0 7.0 0.00 0.00 0.00 58 1014.8
20260507233700 68 220 3.0 9.0 0.00 0.00 0.00 58 1014.7
20260507233147 68 161 4.0 9.0 0.00 0.00 0.00 58 1014.7
20260507232648 68 173 4.0 11.0 0.00 0.00 0.00 57 1014.7
20260507232130 68 202 4.0 11.0 0.00 0.00 0.00 57 1014.8
20260507231628 68 211 3.0 9.0 0.00 0.00 0.00 57 1014.9
20260507231126 68 204 3.0 10.0 0.00 0.00 0.00 57 1014.7
20260507230618 68 191 2.0 10.0 0.00 0.00 0.00 57 1014.9
20260507230110 68 226 2.0 8.0 0.00 0.00 0.00 57 1014.9
20260507225604 68 158 2.0 8.0 0.00 0.00 0.00 57 1014.9
20260507225105 69 195 3.0 8.0 0.00 0.00 0.00 56 1014.8
20260507224555 69 177 3.0 10.0 0.00 0.01 0.00 56 1014.9
20260507224053 69 166 3.0 7.0 0.00 0.04 0.00 57 1015.0
20260507223549 69 130 4.0 9.0 0.00 0.08 0.00 55 1015.0
20260507223543 69 216 4.0 9.0 0.00 0.08 0.00 54 1015.0
20260507222532 69 186 3.0 8.0 0.00 0.08 0.00 54 1015.0
20260507222525 70 185 1.0 8.0 0.00 0.08 0.00 53 1015.0
20260507221516 70 198 0.0 4.0 0.00 0.08 0.00 52 1015.0
20260507221509 70 146 1.0 4.0 0.00 0.08 0.00 54 1015.1
20260507221113 70 146 0.0 4.0 0.00 0.08 0.00 53 1015.0
20260507220000 70 143 1.0 4.0 0.00 0.08 0.00 55 1015.0
20260507215950 70 327 0.0 2.0 0.00 0.08 0.00 52 1015.0
20260507215440 71 327 0.0 1.0 0.00 0.08 0.00 56 1015.1
20260507214934 71 327 1.0 3.0 0.00 0.08 0.00 53 1015.1
20260507214422 70 278 1.0 3.0 0.00 0.08 0.00 55 1015.1
20260507214025 71 326 1.0 3.0 0.00 0.08 0.00 49 1015.1
20260507212909 71 17 0.0 2.0 0.00 0.08 0.00 51 1015.3
20260507212901 71 17 0.0 1.0 0.00 0.08 0.00 53 1015.5
20260507211853 70 17 0.0 1.0 0.00 0.08 0.00 55 1015.6
20260507211343 70 17 0.0 2.0 0.00 0.08 0.00 52 1015.8
20260507210833 71 17 0.0 2.0 0.00 0.08 0.00 49 1015.8
20260507210325 70 17 1.0 3.0 0.00 0.08 0.00 50 1015.9
20260507205826 70 17 2.0 6.0 0.00 0.08 0.00 51 1016.1
20260507205311 71 17 3.0 6.0 0.00 0.08 0.00 52 1015.8
20260507205302 71 27 2.0 6.0 0.00 0.08 0.00 51 1015.8
20260507204251 71 37 0.0 3.0 0.00 0.08 0.00 52 1015.8
20260507203741 70 346 1.0 3.0 0.00 0.08 0.00 53 1015.7
20260507203232 71 347 2.0 7.0 0.00 0.08 0.00 48 1015.7
20260507203222 71 41 2.0 7.0 0.00 0.08 0.00 48 1015.7
20260507202215 71 53 3.0 8.0 0.00 0.08 0.00 49 1015.6
20260507201700 70 22 3.0 8.0 0.00 0.08 0.00 49 1015.7
20260507201151 70 3 3.0 8.0 0.00 0.08 0.00 48 1015.9
20260507200641 71 351 2.0 7.0 0.00 0.08 0.00 50 1016.1
20260507200131 71 18 4.0 8.0 0.00 0.08 0.00 47 1016.1
20260507195622 71 9 5.0 8.0 0.00 0.08 0.00 48 1016.4
20260507195111 71 23 4.0 8.0 0.00 0.08 0.00 50 1016.4
20260507194602 71 22 2.0 8.0 0.00 0.08 0.00 48 1016.4
20260507194552 71 6 2.0 7.0 0.00 0.08 0.00 47 1016.4
20260507193542 71 58 2.0 7.0 0.00 0.08 0.00 48 1016.6
20260507193031 71 55 1.0 8.0 0.00 0.08 0.00 47 1016.8
20260507192522 70 49 2.0 8.0 0.00 0.08 0.00 47 1016.9
20260507192011 71 48 2.0 8.0 0.00 0.08 0.00 46 1017.0
20260507191500 71 85 2.0 8.0 0.00 0.08 0.00 47 1017.2
20260507190951 71 97 3.0 7.0 0.00 0.08 0.00 45 1017.2
20260507190441 72 66 4.0 12.0 0.00 0.08 0.00 49 1017.2
20260507185931 71 83 4.0 11.0 0.00 0.08 0.00 45 1017.1
20260507185421 71 11 5.0 13.0 0.00 0.08 0.00 48 1017.1
20260507185411 71 74 7.0 13.0 0.00 0.08 0.00 45 1017.0
20260507184401 72 24 7.0 14.0 0.00 0.08 0.00 45 1017.1
20260507183851 72 15 5.0 14.0 0.00 0.08 0.00 46 1017.1
20260507183341 72 18 4.0 10.0 0.00 0.08 0.00 47 1017.1
20260507182831 72 85 6.0 14.0 0.00 0.08 0.00 48 1017.1
20260507182314 72 46 6.0 14.0 0.00 0.08 0.00 48 1017.1
20260507181808 72 73 5.0 10.0 0.00 0.08 0.00 47 1017.3
20260507181803 71 14 5.0 13.0 0.00 0.08 0.00 46 1017.4
20260507180752 71 29 6.0 14.0 0.00 0.08 0.00 52 1017.3
20260507180742 70 8 5.0 14.0 0.00 0.08 0.00 50 1017.3
20260507175731 69 11 5.0 9.0 0.00 0.08 0.00 49 1017.4
20260507175221 69 24 6.0 13.0 0.00 0.08 0.00 51 1017.5
20260507175202 68 33 6.0 15.0 0.00 0.08 0.00 50 1017.6
20260507174152 69 97 6.0 15.0 0.00 0.08 0.00 53 1017.8
20260507173641 69 5 6.0 15.0 0.00 0.08 0.00 52 1017.9
20260507173132 69 19 5.0 15.0 0.00 0.08 0.00 51 1017.9
20260507172619 68 38 5.0 12.0 0.00 0.08 0.00 52 1017.9
20260507172110 68 11 6.0 12.0 0.00 0.08 0.00 52 1018.0
20260507171559 68 31 5.0 11.0 0.00 0.08 0.00 53 1018.2
20260507171050 69 5 4.0 9.0 0.00 0.08 0.00 55 1018.3
20260507170539 68 56 3.0 8.0 0.00 0.08 0.00 53 1018.5
20260507170028 68 78 3.0 8.0 0.00 0.08 0.00 56 1018.6
20260507165517 68 356 3.0 8.0 0.00 0.08 0.00 57 1018.8
20260507165008 67 44 3.0 8.0 0.00 0.08 0.00 57 1019.0
20260507164457 67 72 4.0 8.0 0.00 0.08 0.00 58 1019.2
20260507163948 67 22 3.0 8.0 0.00 0.08 0.00 56 1019.2
20260507163437 67 57 4.0 10.0 0.00 0.08 0.00 60 1019.3
20260507162927 65 59 5.0 10.0 0.00 0.08 0.00 59 1019.2
20260507162417 65 23 5.0 8.0 0.00 0.08 0.00 60 1019.2
20260507161908 66 14 4.0 10.0 0.00 0.08 0.00 59 1019.2
20260507161357 65 76 4.0 10.0 0.00 0.08 0.00 62 1019.3
20260507160848 65 355 5.0 10.0 0.00 0.08 0.00 62 1019.2
20260507160337 65 52 6.0 12.0 0.00 0.08 0.00 62 1019.2
20260507155828 64 0 6.0 12.0 0.00 0.08 0.00 63 1019.2
20260507155815 64 3 4.0 9.0 0.00 0.08 0.00 65 1019.0
20260507154808 63 351 3.0 8.0 0.00 0.08 0.00 66 1019.1
20260507154257 63 75 5.0 12.0 0.00 0.08 0.00 66 1019.2
20260507153748 63 17 5.0 12.0 0.00 0.08 0.00 64 1019.2
20260507153237 63 39 5.0 9.0 0.00 0.08 0.00 64 1019.3
20260507153228 63 42 4.0 9.0 0.00 0.08 0.00 65 1019.5
20260507152217 63 11 3.0 8.0 0.00 0.08 0.00 65 1019.6
20260507151710 63 31 4.0 8.0 0.00 0.08 0.00 66 1019.5
20260507151151 62 27 4.0 8.0 0.00 0.09 0.00 67 1019.5
20260507150637 62 14 5.0 8.0 0.00 0.12 0.00 67 1019.6
20260507150622 62 26 4.0 10.0 0.00 0.12 0.00 68 1019.7
20260507150226 62 16 3.0 8.0 0.00 0.12 0.00 68 1019.6
20260507145205 62 348 2.0 9.0 0.00 0.12 0.00 68 1019.7
20260507145109 62 29 4.0 10.0 0.00 0.12 0.00 67 1019.6
20260507145058 62 24 4.0 10.0 0.00 0.12 0.00 71 1019.8
20260507144050 61 27 4.0 10.0 0.00 0.12 0.00 69 1019.8
20260507143041 60 14 4.0 7.0 0.00 0.12 0.00 71 1019.7
20260507142538 60 7 3.0 9.0 0.00 0.12 0.00 73 1019.7
20260507142021 59 39 3.0 9.0 0.00 0.12 0.00 73 1019.7
20260507141505 60 10 3.0 7.0 0.00 0.12 0.00 74 1019.8
20260507141452 59 34 2.0 7.0 0.00 0.12 0.00 75 1019.8
20260507140444 59 46 3.0 7.0 0.00 0.12 0.00 76 1019.8
20260507135931 58 1 3.0 7.0 0.00 0.12 0.00 76 1019.8
20260507135424 58 22 2.0 7.0 0.00 0.12 0.00 77 1019.8
20260507134917 58 35 1.0 5.0 0.00 0.12 0.00 79 1019.9
20260507134411 57 321 2.0 7.0 0.00 0.12 0.00 80 1020.0
20260507133907 57 346 2.0 7.0 0.00 0.12 0.00 81 1020.0
20260507133406 56 16 1.0 4.0 0.00 0.12 0.00 82 1020.0
20260507132900 56 10 0.0 0.0 0.00 0.12 0.00 83 1020.2
20260507132359 55 16 0.0 0.0 0.00 0.12 0.00 84 1020.1
20260507131852 54 16 0.0 0.0 0.00 0.12 0.00 85 1020.2
20260507131346 54 16 0.0 0.0 0.00 0.12 0.00 85 1020.1
20260507130839 54 16 0.0 0.0 0.00 0.12 0.00 85 1020.2
20260507130333 53 18 0.0 0.0 0.00 0.12 0.00 85 1020.1
20260507125828 53 18 0.0 0.0 0.00 0.12 0.00 85 1020.1
20260507125324 53 19 0.0 0.0 0.00 0.12 0.00 85 1020.1
20260507124824 53 20 0.0 0.0 0.00 0.12 0.00 85 1020.1
20260507124322 52 18 0.0 0.0 0.00 0.12 0.00 85 1020.0
20260507124313 52 27 0.0 0.0 0.00 0.12 0.00 84 1020.0
20260507123307 52 31 0.0 0.0 0.00 0.12 0.00 84 1019.9
20260507122800 52 16 0.0 0.0 0.00 0.12 0.00 84 1019.7
20260507122250 52 267 0.0 0.0 0.00 0.12 0.00 84 1019.7
20260507121745 52 20 0.0 0.0 0.00 0.12 0.00 83 1019.7
20260507121236 52 19 0.0 0.0 0.00 0.12 0.00 83 1019.8
20260507120723 52 21 0.0 0.0 0.00 0.12 0.00 83 1019.9
20260507120216 52 13 0.0 0.0 0.00 0.12 0.00 83 1019.7
20260507115708 52 14 0.0 0.0 0.00 0.12 0.00 83 1019.7
20260507115203 52 16 0.0 0.0 0.00 0.12 0.00 83 1020.0
20260507114652 52 18 0.0 0.0 0.00 0.12 0.00 82 1020.0
20260507114140 52 18 0.0 0.0 0.00 0.12 0.00 82 1019.8
20260507114132 52 17 0.0 0.0 0.00 0.12 0.00 82 1019.7
20260507113121 52 20 0.0 2.0 0.00 0.12 0.00 82 1019.5
20260507113111 52 16 0.0 2.0 0.00 0.12 0.00 82 1019.4
20260507112100 52 18 0.0 2.0 0.00 0.12 0.00 82 1019.3
20260507111550 52 17 0.0 2.0 0.00 0.12 0.00 82 1019.2
20260507111041 52 18 0.0 1.0 0.00 0.12 0.00 82 1019.2
20260507110530 52 18 0.0 3.0 0.00 0.12 0.00 82 1019.2
20260507110021 52 16 1.0 3.0 0.00 0.12 0.00 82 1019.2
20260507105510 52 15 1.0 4.0 0.00 0.12 0.00 81 1019.1
20260507105000 53 22 2.0 4.0 0.00 0.12 0.00 81 1019.1
20260507104450 53 37 1.0 4.0 0.00 0.12 0.00 81 1019.0
20260507103940 53 44 1.0 3.0 0.00 0.12 0.00 81 1018.9
20260507103422 53 42 0.0 2.0 0.00 0.12 0.00 81 1018.7
20260507102912 53 40 0.0 2.0 0.00 0.12 0.00 81 1018.5
20260507102402 53 39 0.0 0.0 0.00 0.12 0.00 81 1018.5
20260507101852 53 38 0.0 0.0 0.00 0.12 0.00 81 1018.4
20260507101342 53 39 0.0 0.0 0.00 0.12 0.00 81 1018.4
20260507100832 53 39 0.0 3.0 0.00 0.12 0.00 81 1018.2
20260507100322 53 41 1.0 3.0 0.00 0.12 0.00 81 1018.2
20260507100314 53 44 2.0 3.0 0.00 0.12 0.00 81 1018.1
20260507095803 54 45 2.0 4.0 0.00 0.12 0.00 81 1017.9
20260507095252 54 45 2.0 3.0 0.00 0.12 0.00 81 1017.9
20260507094242 54 47 2.0 4.0 0.00 0.12 0.00 81 1017.7
20260507093732 54 45 2.0 4.0 0.00 0.12 0.00 80 1017.8
20260507093222 54 44 2.0 4.0 0.00 0.12 0.00 80 1017.7
20260507092713 54 49 1.0 4.0 0.00 0.12 0.00 80 1017.6
20260507092202 54 51 1.0 4.0 0.00 0.12 0.00 80 1017.6
20260507091738 54 41 2.0 5.0 0.00 0.12 0.00 80 1017.7
20260507091237 54 41 1.0 5.0 0.00 0.12 0.00 80 1017.5
20260507090120 54 37 2.0 5.0 0.00 0.12 0.00 80 1017.4
20260507085610 54 54 2.0 8.0 0.00 0.12 0.00 80 1017.4
20260507085059 54 54 4.0 8.0 0.00 0.12 0.00 80 1017.3
20260507084551 55 36 4.0 10.0 0.00 0.12 0.00 80 1017.1
20260507084541 55 47 4.0 10.0 0.00 0.12 0.00 80 1017.2
20260507083530 55 47 4.0 8.0 0.00 0.12 0.00 80 1017.2
20260507083020 55 24 4.0 8.0 0.00 0.12 0.00 79 1017.3
20260507083012 55 44 3.0 7.0 0.00 0.12 0.00 79 1017.4
20260507082001 55 33 3.0 7.0 0.00 0.12 0.00 79 1017.4
20260507081450 55 28 2.0 6.0 0.00 0.12 0.00 79 1017.5
20260507081441 55 29 3.0 6.0 0.00 0.12 0.00 79 1017.5
20260507080430 56 26 3.0 7.0 0.00 0.12 0.00 78 1017.4
20260507075920 56 23 2.0 7.0 0.00 0.12 0.00 78 1017.4
20260507075402 56 21 3.0 7.0 0.00 0.12 0.00 78 1017.3
20260507074852 56 24 3.0 8.0 0.00 0.12 0.00 78 1017.3
20260507074342 56 22 3.0 6.0 0.00 0.12 0.00 78 1017.3
20260507073831 56 50 4.0 8.0 0.00 0.12 0.00 77 1017.2
20260507073322 56 31 4.0 9.0 0.00 0.12 0.00 77 1017.1
20260507072812 56 29 3.0 9.0 0.00 0.12 0.00 77 1017.0
20260507072309 56 50 3.0 9.0 0.00 0.12 0.00 77 1016.9
20260507071800 56 47 3.0 9.0 0.00 0.12 0.00 77 1016.6
20260507071259 56 46 4.0 10.0 0.00 0.12 0.00 77 1016.6
20260507071255 56 51 4.0 10.0 0.00 0.12 0.00 77 1016.6
20260507070256 56 42 4.0 12.0 0.00 0.12 0.00 77 1016.6
20260507065755 56 55 4.0 12.0 0.00 0.12 0.00 77 1016.5
20260507065256 56 73 4.0 11.0 0.00 0.12 0.00 78 1016.5
20260507065251 56 34 2.0 11.0 0.00 0.12 0.00 78 1016.6
20260507064902 57 16 2.0 11.0 0.00 0.12 0.00 78 1016.6
20260507063750 57 33 1.0 4.0 0.00 0.12 0.00 78 1016.6
20260507063741 57 39 1.0 4.0 0.00 0.12 0.00 77 1016.8
20260507062722 57 41 2.0 7.0 0.00 0.12 0.00 77 1016.7
20260507062218 57 72 2.0 7.0 0.00 0.12 0.00 77 1016.7
20260507061708 57 62 3.0 9.0 0.00 0.12 0.00 77 1016.6
20260507061157 57 37 3.0 10.0 0.00 0.12 0.00 77 1016.6
20260507060648 58 45 2.0 10.0 0.00 0.12 0.00 77 1016.5
20260507060130 58 45 3.0 12.0 0.00 0.12 0.00 77 1016.4
20260507055621 58 65 3.0 12.0 0.00 0.12 0.00 76 1016.5
20260507055112 58 68 3.0 11.0 0.00 0.12 0.00 76 1016.5
20260507054558 58 72 2.0 11.0 0.00 0.12 0.00 75 1016.6
20260507054048 58 34 2.0 6.0 0.00 0.12 0.00 75 1016.5
20260507053541 58 78 3.0 9.0 0.00 0.12 0.00 75 1016.5
20260507053034 58 29 3.0 9.0 0.00 0.12 0.00 75 1016.5
20260507053022 58 39 3.0 12.0 0.00 0.12 0.00 74 1016.6
20260507052626 58 47 4.0 12.0 0.00 0.12 0.00 74 1016.5
20260507051513 58 83 3.0 10.0 0.00 0.12 0.00 74 1016.6
20260507051505 58 42 4.0 11.0 0.00 0.12 0.00 74 1016.6
20260507050501 58 53 4.0 11.0 0.00 0.12 0.00 74 1016.5
20260507045957 58 65 3.0 11.0 0.00 0.12 0.12 74 1016.4
20260507045448 58 47 3.0 7.0 0.00 0.12 0.12 74 1016.4
20260507044936 58 55 3.0 11.0 0.00 0.12 0.12 74 1016.6
20260507044927 58 45 5.0 11.0 0.00 0.12 0.12 74 1016.5
20260507043916 58 43 6.0 13.0 0.00 0.12 0.12 73 1016.6
20260507043406 59 40 5.0 13.0 0.00 0.12 0.12 74 1016.6
20260507042856 59 53 4.0 11.0 0.00 0.12 0.12 73 1016.7
20260507042347 59 80 5.0 12.0 0.00 0.12 0.12 73 1016.8
20260507042337 59 57 5.0 11.0 0.00 0.12 0.12 74 1016.8
20260507041828 59 85 5.0 11.0 0.00 0.12 0.12 74 1016.8
20260507040818 59 33 4.0 10.0 0.00 0.12 0.12 74 1016.8
20260507040814 59 51 4.0 11.0 0.00 0.12 0.12 74 1016.7
20260507035814 59 64 5.0 11.0 0.00 0.12 0.12 75 1016.9
20260507035315 59 36 6.0 11.0 0.00 0.12 0.12 75 1017.0
20260507034814 59 41 4.0 10.0 0.00 0.12 0.12 76 1016.9
20260507034302 59 39 4.0 10.0 0.00 0.12 0.12 77 1016.9
20260507034243 59 58 5.0 12.0 0.00 0.12 0.12 77 1016.8
20260507033847 59 42 6.0 12.0 0.00 0.12 0.12 77 1016.9
20260507032730 59 63 4.0 9.0 0.00 0.12 0.12 78 1016.9
20260507032220 59 44 3.0 8.0 0.00 0.12 0.12 78 1016.8
20260507031702 59 51 3.0 11.0 0.00 0.12 0.12 78 1016.7
20260507031152 59 43 4.0 11.0 0.00 0.12 0.12 78 1016.5
20260507030642 59 39 4.0 10.0 0.00 0.12 0.12 78 1016.6
20260507030124 59 59 3.0 9.0 0.00 0.12 0.12 78 1016.6
20260507030115 59 49 3.0 10.0 0.00 0.12 0.12 78 1016.5
20260507025104 59 48 3.0 10.0 0.00 0.12 0.12 78 1016.4
20260507024554 59 60 3.0 10.0 0.00 0.12 0.12 79 1016.4
20260507024044 59 44 3.0 10.0 0.00 0.12 0.12 79 1016.2
20260507023534 59 51 2.0 10.0 0.00 0.12 0.12 79 1016.1
20260507023024 59 64 2.0 7.0 0.00 0.12 0.12 79 1015.8
20260507022514 59 45 3.0 7.0 0.00 0.12 0.12 79 1015.7
20260507022012 59 43 3.0 8.0 0.00 0.12 0.12 80 1015.7
20260507021510 59 45 2.0 8.0 0.00 0.12 0.12 80 1015.6
20260507021009 59 36 2.0 6.0 0.00 0.12 0.12 80 1015.5
20260507020510 59 54 3.0 8.0 0.00 0.12 0.12 80 1015.4
20260507020010 59 39 4.0 12.0 0.00 0.12 0.12 80 1015.3
20260507015500 59 44 5.0 12.0 0.00 0.12 0.12 80 1015.1
20260507014950 59 60 5.0 10.0 0.00 0.12 0.12 81 1015.0